Bryce, UT

5:35 PM MST on February 13, 2016 (GMT -0700)
Bryce Canyon

Weather History for KBCE - December, 2013

Change the Weather History Date:

Saturday, December 21, 2013

  Actual Average (KCDC) Record (KCDC)
Temperature  
Mean Temperature 19 °F 28 °F  
Max Temperature 30 °F 41 °F 61 °F (2005)
Min Temperature 8 °F 16 °F -13 °F (1990)
Degree Days  
Heating Degree Days 46 37  
Month to date heating degree days 752  
Since 1 July heating degree days 2194  
Cooling Degree Days 0 0  
Month to date cooling degree days 0  
Year to date cooling degree days 588  
Moisture  
Dew Point 18 °F    
Average Humidity 83    
Maximum Humidity 92    
Minimum Humidity 59    
Precipitation  
Precipitation 0.00 in 0.03 in 0.53 in (2010)
Month to date precipitation 0.55  
Year to date precipitation 11.02  
Sea Level Pressure  
Sea Level Pressure 29.80 in    
Wind  
Wind Speed 13 mph (NW)    
Max Wind Speed 28 mph    
Max Gust Speed 36 mph    
Visibility 8 miles    
Events Snow    
T = Trace of Precipitation, MM = Missing Value Source: NWS Daily Summary

Daily Weather History Graph

Daily Weather History Graph

Search for Another Location

Airport or City:

Trip Planner

Search our weather history database for the weather conditions in past years. The results will help you decide how hot, cold, wet, or windy it might be!

Date:

Astronomy

Dec. 21, 2013 Rise Set
Actual Time 7:40 AM MST 5:13 PM MST
Civil Twilight 7:10 AM MST 5:42 PM MST
Nautical Twilight 6:37 AM MST 6:15 PM MST
Astronomical Twilight 6:06 AM MST 6:47 PM MST
Moon 9:29 PM MST (12/21) 10:12 AM MST (12/21)
Length of Visible Light 10h 32m
Length of Day
9h 33m
Waning Gibbous, 84% of the Moon is Illuminated
Dec 21
Waning Gibbous
Dec 25
Last Quarter
Jan 1
New
Jan 7
First Quarter
Jan 15
Full

Hourly Weather History & Observations

Time (MST) Temp. Windchill Dew Point Humidity Pressure Visibility Wind Dir Wind Speed Gust Speed Precip Events Conditions
12:53 AM 14.0 °F 8.2 °F 10.9 °F 88% 29.75 in 10.0 mi WNW 3.5 mph - N/A   Clear
1:53 AM 10.0 °F -1.9 °F 6.1 °F 84% 29.74 in 10.0 mi NW 8.1 mph - N/A   Clear
2:53 AM 8.1 °F -2.0 °F 6.1 °F 92% 29.74 in 10.0 mi NNW 5.8 mph - N/A   Partly Cloudy
3:53 AM 10.0 °F -3.7 °F 7.0 °F 87% 29.73 in 10.0 mi NNE 10.4 mph - N/A   Partly Cloudy
4:53 AM 19.0 °F 7.5 °F 7.0 °F 59% 29.68 in 10.0 mi WNW 10.4 mph - N/A   Scattered Clouds
5:53 AM 12.9 °F 1.6 °F 8.1 °F 81% 29.75 in 10.0 mi NE 8.1 mph - N/A   Overcast
6:53 AM 14.0 °F 2.9 °F 10.9 °F 88% 29.75 in 10.0 mi NW 8.1 mph - N/A   Mostly Cloudy
7:53 AM 19.9 °F 7.3 °F 17.1 °F 89% 29.76 in 10.0 mi WNW 12.7 mph - N/A   Clear
8:53 AM 21.9 °F 13.4 °F 18.0 °F 85% 29.77 in 10.0 mi NNE 6.9 mph 19.6 mph 0.00 in   Mostly Cloudy
9:19 AM 21.9 °F 13.4 °F 18.0 °F 85% 29.75 in 10.0 mi NNW 6.9 mph - N/A   Overcast
9:53 AM 23.0 °F 8.3 °F 19.0 °F 85% 29.76 in 10.0 mi NW 19.6 mph 24.2 mph 0.00 in   Mostly Cloudy
10:00 AM 24.1 °F 10.6 °F 19.9 °F 84% 29.74 in 10.0 mi NW 17.3 mph - N/A   Partly Cloudy
10:53 AM 27.0 °F 13.5 °F 21.9 °F 81% 29.75 in 10.0 mi WNW 19.6 mph 27.6 mph N/A   Clear
11:53 AM 30.0 °F 16.9 °F 24.1 °F 79% 29.75 in 10.0 mi WNW 21.9 mph 32.2 mph N/A   Mostly Cloudy
12:53 PM 28.9 °F 14.8 °F 23.0 °F 78% 29.74 in 10.0 mi WNW 24.2 mph 32.2 mph N/A   Partly Cloudy
1:38 PM 28.9 °F 15.4 °F 24.1 °F 82% 29.76 in 2.5 mi WNW 21.9 mph 28.8 mph 0.00 in Snow Light Snow
1:49 PM 30.2 °F 16.8 °F 24.8 °F 80% 29.76 in 3.0 mi WNW 23.0 mph 28.8 mph 0.00 in Snow Light Snow
1:53 PM 30.0 °F 16.3 °F 25.0 °F 82% 29.77 in 2.5 mi NW 24.2 mph 29.9 mph 0.00 in Snow Light Snow
1:59 PM 30.0 °F 16.6 °F 25.0 °F 82% 29.76 in 1.8 mi WNW 23.0 mph 29.9 mph 0.00 in Snow Light Snow
2:06 PM 30.0 °F 16.9 °F 25.0 °F 82% 29.76 in 2.5 mi WNW 21.9 mph 29.9 mph 0.00 in Snow Light Snow
2:17 PM 28.9 °F 15.4 °F 25.0 °F 85% 29.77 in 1.0 mi WNW 21.9 mph 32.2 mph 0.00 in Snow Light Snow
2:37 PM 28.9 °F 14.0 °F 24.1 °F 82% 29.77 in 3.0 mi WNW 27.6 mph 34.5 mph 0.00 in Snow Light Snow
2:53 PM 28.9 °F 14.0 °F 24.1 °F 82% 29.81 in 5.0 mi NW 27.6 mph 35.7 mph 0.00 in Snow Light Snow
3:21 PM 28.0 °F 13.3 °F 24.1 °F 85% 29.79 in 2.0 mi NW 25.3 mph 32.2 mph 0.00 in Snow Light Snow
3:31 PM 28.0 °F 15.3 °F 23.0 °F 81% 29.80 in 4.0 mi NW 18.4 mph 29.9 mph 0.00 in Snow Light Snow
3:53 PM 27.0 °F 11.9 °F 23.0 °F 85% 29.83 in 7.0 mi NW 25.3 mph 35.7 mph 0.00 in Snow Light Snow
4:46 PM 26.1 °F 10.7 °F 21.9 °F 84% 29.82 in 9.0 mi NW 25.3 mph 33.4 mph 0.00 in   Mostly Cloudy
4:53 PM 26.1 °F 10.7 °F 21.9 °F 84% 29.82 in 9.0 mi WNW 25.3 mph 33.4 mph 0.00 in   Mostly Cloudy
5:53 PM 26.1 °F 15.0 °F 21.0 °F 81% 29.88 in 9.0 mi NNW 12.7 mph 25.3 mph 0.00 in Snow Light Snow
6:53 PM 25.0 °F 13.1 °F 21.0 °F 85% 29.92 in 10.0 mi WNW 13.8 mph - 0.00 in   Overcast
7:53 PM 23.0 °F 13.9 °F 19.0 °F 85% 29.93 in 10.0 mi NNW 8.1 mph - N/A   Overcast
8:53 PM 21.0 °F 9.9 °F 15.1 °F 78% 29.96 in 10.0 mi NNW 10.4 mph - N/A   Scattered Clouds
9:53 PM 19.0 °F 4.5 °F 12.9 °F 77% 29.99 in 10.0 mi North 16.1 mph - N/A   Clear
10:53 PM 17.1 °F 7.6 °F 12.0 °F 81% 30.01 in 10.0 mi NW 6.9 mph - N/A   Clear
11:53 PM 19.0 °F 6.1 °F 14.0 °F 81% 29.99 in 10.0 mi NW 12.7 mph - N/A   Clear